sat.trackr.live / text

‹ back to catalog

NANOSATC-BR1

NORAD 40024 · 2014-033Q

PAYLOAD ACTIVE UNKNOWN

§ Identity

Operator
Country
BRAZ
Launch date
2014-06-19
Launch site
DLS
Launch vehicle
Mass (kg)
RCS (m²)
0.04

Purposes: tech_demo

External: N2YO · Heavens-Above · Gunter

§ Orbital elements

Epoch: 2026-09-20T01:19:36.466752Z

Period
93.86 min
Inclination
98.0653°
Eccentricity
0.0003272
Mean motion
15.34184642 rev/d
Perigee alt
461.1 km
Apogee alt
465.6 km
Semi-major
6,841.5 km
B*
3.6999e-4
RAAN
304.0238°
Arg perigee
188.2084°
Mean anomaly
171.9104°
Rev number
66,851

§ Raw data

NANOSATC-BR11 40024U 14033Q   26263.05528318  .00012159  00000+0  36999-3 0  99982 40024  98.0653 304.0238 0003272 188.2084 171.9104 15.34184642668515

JSON: /api/v1/satellites/40024 · /tle

For live sub-satellite position, see the globe view (requires WebGL).

§ Visibility from observer

Set your observer location to see the next 7 days of passes ≥ 10°. The values pass through the URL so the page stays shareable.

No JS? Fill the form by hand. The geolocation button needs JavaScript.

§ Radio — SatNOGS DB

ModeDescriptionDownlinkUplink
BPSK Mode V - BPSK1k2 - TLM 145.865 MHz

1 transmitter · refreshed weekly from db.satnogs.org